Tabellarische Ansicht des 4.2.2014


Die einzelnen Werte des Tages

Uhrzeit Temperatur Luftdruck Luftfeuchte Wind Hi-Wind Taupunkt THW Index Wind Chill Heat Index Solar- strahlung Regen

00:00

3.0 C

1005.3 hpa

79 %

4.8 km/h aus 117

9.7 km/h aus ESE

-0.3 C

1.7 C

1.9 C

2.8 C

0 W/m

0.00 mm

00:05

3.0 C

1005.3 hpa

79 %

4.8 km/h aus 115

11.3 km/h aus ESE

-0.3 C

1.7 C

1.9 C

2.8 C

0 W/m

0.00 mm

00:10

3.0 C

1005.3 hpa

79 %

4.8 km/h aus 116

9.7 km/h aus ESE

-0.3 C

1.7 C

1.9 C

2.8 C

0 W/m

0.00 mm

00:15

3.0 C

1005.3 hpa

79 %

3.2 km/h aus 116

8.0 km/h aus ESE

-0.3 C

2.6 C

2.7 C

2.8 C

0 W/m

0.00 mm

00:20

2.9 C

1005.3 hpa

79 %

4.8 km/h aus 117

8.0 km/h aus ESE

-0.3 C

1.7 C

1.8 C

2.8 C

0 W/m

0.00 mm

00:25

2.9 C

1005.3 hpa

79 %

4.8 km/h aus 117

8.0 km/h aus ESE

-0.3 C

1.7 C

1.8 C

2.8 C

0 W/m

0.00 mm

00:30

3.0 C

1005.5 hpa

79 %

8.0 km/h aus 117

14.5 km/h aus ESE

-0.3 C

0.6 C

0.8 C

2.8 C

0 W/m

0.00 mm

00:35

3.0 C

1005.5 hpa

79 %

8.0 km/h aus 117

16.1 km/h aus ESE

-0.3 C

0.6 C

0.8 C

2.8 C

0 W/m

0.00 mm

00:40

3.0 C

1005.5 hpa

79 %

8.0 km/h aus 115

17.7 km/h aus SE

-0.3 C

0.6 C

0.8 C

2.8 C

0 W/m

0.00 mm

00:45

3.1 C

1005.5 hpa

79 %

12.9 km/h aus 117

22.5 km/h aus SSE

-0.2 C

-0.4 C

-0.3 C

2.9 C

0 W/m

0.00 mm

00:50

3.1 C

1005.5 hpa

78 %

11.3 km/h aus 116

17.7 km/h aus SE

-0.4 C

-0.1 C

0.1 C

2.9 C

0 W/m

0.00 mm

00:55

3.1 C

1005.5 hpa

78 %

12.9 km/h aus 117

17.7 km/h aus SSE

-0.4 C

-0.3 C

-0.2 C

2.9 C

0 W/m

0.00 mm

01:00

3.2 C

1005.3 hpa

78 %

12.9 km/h aus 117

19.3 km/h aus SSE

-0.3 C

-0.3 C

-0.1 C

3.0 C

0 W/m

0.00 mm

01:05

3.2 C

1005.3 hpa

78 %

11.3 km/h aus 117

17.7 km/h aus SSE

-0.3 C

0.1 C

0.2 C

3.0 C

0 W/m

0.00 mm

01:10

3.2 C

1005.3 hpa

78 %

16.1 km/h aus 116

22.5 km/h aus SSE

-0.3 C

-0.8 C

-0.7 C

3.0 C

0 W/m

0.00 mm

01:15

3.1 C

1005.3 hpa

79 %

16.1 km/h aus 117

22.5 km/h aus SSE

-0.2 C

-0.9 C

-0.7 C

2.9 C

0 W/m

0.00 mm

01:20

3.1 C

1005.3 hpa

79 %

14.5 km/h aus 116

20.9 km/h aus SSE

-0.2 C

-0.7 C

-0.5 C

2.9 C

0 W/m

0.00 mm

01:25

3.1 C

1005.3 hpa

79 %

12.9 km/h aus 118

22.5 km/h aus SE

-0.2 C

-0.3 C

-0.2 C

2.9 C

0 W/m

0.00 mm

01:30

3.1 C

1005.3 hpa

79 %

16.1 km/h aus 117

22.5 km/h aus SSE

-0.2 C

-1.0 C

-0.8 C

2.9 C

0 W/m

0.00 mm

01:35

3.1 C

1005.3 hpa

79 %

17.7 km/h aus 117

25.7 km/h aus SSE

-0.2 C

-1.2 C

-1.1 C

2.9 C

0 W/m

0.00 mm

01:40

3.1 C

1005.3 hpa

79 %

16.1 km/h aus 117

25.7 km/h aus SE

-0.2 C

-1.0 C

-0.8 C

2.9 C

0 W/m

0.00 mm

01:45

3.1 C

1005.3 hpa

79 %

16.1 km/h aus 114

22.5 km/h aus SE

-0.2 C

-1.0 C

-0.8 C

2.9 C

0 W/m

0.00 mm

01:50

3.1 C

1005.3 hpa

79 %

9.7 km/h aus 117

17.7 km/h aus SE

-0.2 C

0.3 C

0.4 C

2.9 C

0 W/m

0.00 mm

01:55

3.0 C

1005.3 hpa

79 %

11.3 km/h aus 117

17.7 km/h aus SE

-0.3 C

-0.2 C

0.0 C

2.8 C

0 W/m

0.00 mm

02:00

2.9 C

1005.5 hpa

79 %

9.7 km/h aus 116

20.9 km/h aus SE

-0.3 C

0.1 C

0.3 C

2.8 C

0 W/m

0.00 mm

02:05

2.9 C

1005.5 hpa

79 %

8.0 km/h aus 117

20.9 km/h aus ESE

-0.3 C

0.6 C

0.7 C

2.8 C

0 W/m

0.00 mm

02:10

2.9 C

1005.5 hpa

79 %

6.4 km/h aus 117

16.1 km/h aus SE

-0.4 C

1.0 C

1.2 C

2.7 C

0 W/m

0.00 mm

02:15

2.8 C

1005.5 hpa

79 %

6.4 km/h aus 117

14.5 km/h aus SE

-0.5 C

0.9 C

1.1 C

2.7 C

0 W/m

0.00 mm

02:20

2.8 C

1005.5 hpa

79 %

3.2 km/h aus 116

9.7 km/h aus SE

-0.5 C

2.3 C

2.5 C

2.6 C

0 W/m

0.00 mm

02:25

2.7 C

1005.5 hpa

79 %

4.8 km/h aus 117

9.7 km/h aus SE

-0.6 C

1.4 C

1.6 C

2.6 C

0 W/m

0.00 mm

02:30

2.7 C

1005.3 hpa

79 %

4.8 km/h aus 118

9.7 km/h aus SE

-0.6 C

1.3 C

1.5 C

2.5 C

0 W/m

0.00 mm

02:35

2.6 C

1005.3 hpa

79 %

4.8 km/h aus 117

9.7 km/h aus SE

-0.7 C

1.3 C

1.4 C

2.4 C

0 W/m

0.00 mm

02:40

2.6 C

1005.3 hpa

79 %

6.4 km/h aus 117

9.7 km/h aus SE

-0.7 C

0.6 C

0.8 C

2.4 C

0 W/m

0.00 mm

02:45

2.6 C

1005.3 hpa

79 %

4.8 km/h aus 116

11.3 km/h aus SE

-0.7 C

1.2 C

1.4 C

2.4 C

0 W/m

0.00 mm

02:50

2.5 C

1005.3 hpa

79 %

4.8 km/h aus 117

9.7 km/h aus SE

-0.8 C

1.2 C

1.3 C

2.3 C

0 W/m

0.00 mm

02:55

2.5 C

1005.3 hpa

79 %

4.8 km/h aus 117

14.5 km/h aus SE

-0.8 C

1.2 C

1.3 C

2.3 C

0 W/m

0.00 mm

03:00

2.4 C

1005.3 hpa

79 %

8.0 km/h aus 117

17.7 km/h aus SE

-0.8 C

-0.1 C

0.1 C

2.3 C

0 W/m

0.00 mm

03:05

2.4 C

1005.3 hpa

79 %

9.7 km/h aus 117

22.5 km/h aus SE

-0.8 C

-0.4 C

-0.3 C

2.3 C

0 W/m

0.00 mm

03:10

2.4 C

1005.3 hpa

79 %

9.7 km/h aus 117

17.7 km/h aus SSE

-0.8 C

-0.4 C

-0.3 C

2.3 C

0 W/m

0.00 mm

03:15

2.4 C

1005.2 hpa

79 %

11.3 km/h aus 115

19.3 km/h aus SE

-0.8 C

-0.8 C

-0.7 C

2.3 C

0 W/m

0.00 mm

03:20

2.4 C

1005.2 hpa

79 %

11.3 km/h aus 117

19.3 km/h aus SE

-0.8 C

-0.8 C

-0.7 C

2.3 C

0 W/m

0.00 mm

03:25

2.4 C

1005.2 hpa

79 %

11.3 km/h aus 115

22.5 km/h aus ESE

-0.8 C

-0.8 C

-0.7 C

2.3 C

0 W/m

0.00 mm

03:30

2.5 C

1005.1 hpa

79 %

11.3 km/h aus 116

20.9 km/h aus ESE

-0.8 C

-0.8 C

-0.6 C

2.3 C

0 W/m

0.00 mm

03:35

2.6 C

1005.1 hpa

79 %

11.3 km/h aus 117

20.9 km/h aus ESE

-0.7 C

-0.7 C

-0.6 C

2.4 C

0 W/m

0.00 mm

03:40

2.6 C

1005.1 hpa

79 %

8.0 km/h aus 117

19.3 km/h aus SE

-0.7 C

0.1 C

0.3 C

2.4 C

0 W/m

0.00 mm

03:45

2.6 C

1004.8 hpa

79 %

9.7 km/h aus 117

17.7 km/h aus SE

-0.7 C

-0.3 C

-0.1 C

2.4 C

0 W/m

0.00 mm

03:50

2.6 C

1004.8 hpa

79 %

11.3 km/h aus 117

22.5 km/h aus SE

-0.7 C

-0.6 C

-0.4 C

2.4 C

0 W/m

0.00 mm

03:55

2.6 C

1004.8 hpa

79 %

11.3 km/h aus 116

22.5 km/h aus SE

-0.7 C

-0.6 C

-0.4 C

2.4 C

0 W/m

0.00 mm

04:00

2.7 C

1004.8 hpa

79 %

11.3 km/h aus 116

20.9 km/h aus SE

-0.6 C

-0.6 C

-0.4 C

2.5 C

0 W/m

0.00 mm

04:05

2.7 C

1004.8 hpa

79 %

11.3 km/h aus 117

19.3 km/h aus SE

-0.6 C

-0.6 C

-0.4 C

2.5 C

0 W/m

0.00 mm

04:10

2.7 C

1004.8 hpa

79 %

11.3 km/h aus 116

20.9 km/h aus SE

-0.6 C

-0.5 C

-0.3 C

2.6 C

0 W/m

0.00 mm

04:15

2.7 C

1004.8 hpa

79 %

12.9 km/h aus 116

24.1 km/h aus SE

-0.6 C

-0.8 C

-0.7 C

2.6 C

0 W/m

0.00 mm

04:20

2.7 C

1004.8 hpa

79 %

12.9 km/h aus 114

25.7 km/h aus ESE

-0.6 C

-0.8 C

-0.7 C

2.6 C

0 W/m

0.00 mm

04:25

2.8 C

1004.8 hpa

79 %

14.5 km/h aus 117

22.5 km/h aus SE

-0.5 C

-1.1 C

-0.9 C

2.6 C

0 W/m

0.00 mm

04:30

2.8 C

1004.8 hpa

79 %

16.1 km/h aus 117

27.4 km/h aus SSE

-0.5 C

-1.3 C

-1.2 C

2.6 C

0 W/m

0.00 mm

04:35

2.8 C

1004.8 hpa

79 %

14.5 km/h aus 117

27.4 km/h aus SSE

-0.5 C

-1.0 C

-0.8 C

2.7 C

0 W/m

0.00 mm

04:40

2.8 C

1004.8 hpa

79 %

12.9 km/h aus 118

20.9 km/h aus SE

-0.5 C

-0.7 C

-0.5 C

2.7 C

0 W/m

0.00 mm

04:45

2.8 C

1004.9 hpa

79 %

9.7 km/h aus 117

17.7 km/h aus SE

-0.5 C

0.0 C

0.2 C

2.7 C

0 W/m

0.00 mm

04:50

2.8 C

1004.9 hpa

79 %

6.4 km/h aus 117

11.3 km/h aus ESE

-0.5 C

0.9 C

1.1 C

2.7 C

0 W/m

0.00 mm

04:55

2.8 C

1004.9 hpa

79 %

9.7 km/h aus 117

20.9 km/h aus SE

-0.5 C

-0.1 C

0.1 C

2.6 C

0 W/m

0.00 mm

05:00

2.8 C

1004.8 hpa

79 %

8.0 km/h aus 117

17.7 km/h aus ESE

-0.5 C

0.4 C

0.6 C

2.7 C

0 W/m

0.00 mm

05:05

2.8 C

1004.8 hpa

79 %

8.0 km/h aus 117

17.7 km/h aus ESE

-0.5 C

0.4 C

0.6 C

2.7 C

0 W/m

0.00 mm

05:10

2.9 C

1004.8 hpa

79 %

3.2 km/h aus 117

9.7 km/h aus E

-0.4 C

2.4 C

2.6 C

2.7 C

0 W/m

0.00 mm

05:15

2.9 C

1004.9 hpa

79 %

1.6 km/h aus 117

6.4 km/h aus NE

-0.4 C

2.7 C

2.9 C

2.7 C

0 W/m

0.00 mm

05:20

2.8 C

1004.9 hpa

79 %

4.8 km/h aus 117

16.1 km/h aus ENE

-0.5 C

1.6 C

1.7 C

2.7 C

0 W/m

0.00 mm

05:25

2.9 C

1004.9 hpa

79 %

3.2 km/h aus 117

8.0 km/h aus ESE

-0.4 C

2.4 C

2.6 C

2.7 C

0 W/m

0.00 mm

05:30

2.8 C

1004.9 hpa

79 %

3.2 km/h aus 117

6.4 km/h aus ENE

-0.5 C

2.4 C

2.6 C

2.7 C

0 W/m

0.00 mm

05:35

2.8 C

1004.9 hpa

79 %

1.6 km/h aus 116

9.7 km/h aus ENE

-0.5 C

2.7 C

2.8 C

2.7 C

0 W/m

0.00 mm

05:40

2.8 C

1004.9 hpa

79 %

3.2 km/h aus 116

8.0 km/h aus E

-0.5 C

2.4 C

2.6 C

2.7 C

0 W/m

0.00 mm

05:45

2.8 C

1004.7 hpa

79 %

4.8 km/h aus 118

12.9 km/h aus ESE

-0.5 C

1.5 C

1.7 C

2.6 C

0 W/m

0.00 mm

05:50

2.7 C

1004.7 hpa

79 %

4.8 km/h aus 117

11.3 km/h aus E

-0.6 C

1.4 C

1.6 C

2.6 C

0 W/m

0.00 mm

05:55

2.7 C

1004.7 hpa

79 %

4.8 km/h aus 116

8.0 km/h aus E

-0.6 C

1.3 C

1.5 C

2.5 C

0 W/m

0.00 mm

06:00

2.7 C

1004.7 hpa

79 %

4.8 km/h aus 117

8.0 km/h aus ENE

-0.6 C

1.3 C

1.5 C

2.5 C

0 W/m

0.00 mm

06:05

2.6 C

1004.7 hpa

79 %

6.4 km/h aus 115

14.5 km/h aus ENE

-0.7 C

0.7 C

0.8 C

2.4 C

0 W/m

0.00 mm

06:10

2.6 C

1004.7 hpa

79 %

4.8 km/h aus 116

9.7 km/h aus E

-0.7 C

1.2 C

1.4 C

2.4 C

0 W/m

0.00 mm

06:15

2.6 C

1004.7 hpa

79 %

4.8 km/h aus 117

11.3 km/h aus ESE

-0.7 C

1.2 C

1.4 C

2.4 C

0 W/m

0.00 mm

06:20

2.6 C

1004.7 hpa

79 %

3.2 km/h aus 116

9.7 km/h aus E

-0.7 C

2.1 C

2.2 C

2.4 C

0 W/m

0.00 mm

06:25

2.5 C

1004.7 hpa

79 %

1.6 km/h aus 117

11.3 km/h aus E

-0.8 C

2.3 C

2.5 C

2.3 C

0 W/m

0.00 mm

06:30

2.4 C

1004.8 hpa

79 %

3.2 km/h aus 117

9.7 km/h aus E

-0.8 C

1.9 C

2.1 C

2.3 C

0 W/m

0.00 mm

06:35

2.4 C

1004.8 hpa

79 %

3.2 km/h aus 116

11.3 km/h aus ESE

-0.8 C

1.9 C

2.1 C

2.3 C

0 W/m

0.00 mm

06:40

2.4 C

1004.8 hpa

79 %

6.4 km/h aus 116

16.1 km/h aus E

-0.9 C

0.4 C

0.6 C

2.2 C

0 W/m

0.00 mm

06:45

2.3 C

1004.9 hpa

79 %

6.4 km/h aus 118

17.7 km/h aus ESE

-0.9 C

0.3 C

0.5 C

2.2 C

0 W/m

0.00 mm

06:50

2.3 C

1004.9 hpa

79 %

6.4 km/h aus 117

14.5 km/h aus E

-0.9 C

0.3 C

0.5 C

2.2 C

0 W/m

0.00 mm

06:55

2.3 C

1004.9 hpa

79 %

8.0 km/h aus 116

17.7 km/h aus ESE

-1.0 C

-0.2 C

-0.1 C

2.1 C

0 W/m

0.00 mm

07:00

2.3 C

1005.0 hpa

79 %

8.0 km/h aus 117

16.1 km/h aus SE

-1.0 C

-0.2 C

-0.1 C

2.1 C

0 W/m

0.00 mm

07:05

2.3 C

1005.0 hpa

79 %

6.4 km/h aus 117

16.1 km/h aus SE

-1.0 C

0.3 C

0.4 C

2.1 C

0 W/m

0.00 mm

07:10

2.3 C

1005.0 hpa

79 %

8.0 km/h aus 117

16.1 km/h aus ESE

-1.0 C

-0.2 C

-0.1 C

2.1 C

0 W/m

0.00 mm

07:15

2.3 C

1005.3 hpa

79 %

8.0 km/h aus 117

17.7 km/h aus SE

-1.0 C

-0.2 C

-0.1 C

2.1 C

0 W/m

0.00 mm

07:20

2.3 C

1005.3 hpa

79 %

11.3 km/h aus 117

24.1 km/h aus SE

-1.0 C

-1.1 C

-0.9 C

2.1 C

0 W/m

0.00 mm

07:25

2.3 C

1005.3 hpa

79 %

17.7 km/h aus 117

30.6 km/h aus SE

-0.9 C

-2.1 C

-1.9 C

2.2 C

0 W/m

0.00 mm

07:30

2.4 C

1005.6 hpa

79 %

19.3 km/h aus 117

32.2 km/h aus SE

-0.9 C

-2.3 C

-2.1 C

2.2 C

0 W/m

0.00 mm

07:35

2.4 C

1005.6 hpa

79 %

20.9 km/h aus 117

33.8 km/h aus SSE

-0.8 C

-2.4 C

-2.3 C

2.3 C

0 W/m

0.00 mm

07:40

2.6 C

1005.6 hpa

79 %

20.9 km/h aus 117

29.0 km/h aus SSE

-0.7 C

-2.3 C

-2.1 C

2.4 C

0 W/m

0.00 mm

07:45

2.6 C

1005.7 hpa

79 %

19.3 km/h aus 117

33.8 km/h aus ESE

-0.7 C

-2.1 C

-1.9 C

2.4 C

0 W/m

0.00 mm

07:50

2.6 C

1005.7 hpa

79 %

19.3 km/h aus 118

30.6 km/h aus SE

-0.7 C

-2.1 C

-1.9 C

2.4 C

0 W/m

0.00 mm

07:55

2.6 C

1005.7 hpa

79 %

19.3 km/h aus 116

27.4 km/h aus SE

-0.7 C

-2.1 C

-1.9 C

2.4 C

4 W/m

0.00 mm

08:00

2.6 C

1005.8 hpa

79 %

19.3 km/h aus 117

29.0 km/h aus SSE

-0.7 C

-2.1 C

-1.9 C

2.4 C

6 W/m

0.00 mm

08:05

2.6 C

1005.8 hpa

79 %

20.9 km/h aus 116

29.0 km/h aus SSE

-0.7 C

-2.3 C

-2.1 C

2.4 C

8 W/m

0.00 mm

08:10

2.6 C

1005.8 hpa

79 %

20.9 km/h aus 116

29.0 km/h aus SE

-0.7 C

-2.3 C

-2.1 C

2.4 C

10 W/m

0.00 mm

08:15

2.6 C

1006.2 hpa

79 %

19.3 km/h aus 116

27.4 km/h aus SSE

-0.7 C

-2.0 C

-1.8 C

2.4 C

12 W/m

0.00 mm

08:20

2.6 C

1006.2 hpa

79 %

20.9 km/h aus 116

25.7 km/h aus SE

-0.7 C

-2.2 C

-2.1 C

2.4 C

15 W/m

0.00 mm

08:25

2.7 C

1006.2 hpa

79 %

16.1 km/h aus 117

25.7 km/h aus SE

-0.6 C

-1.4 C

-1.3 C

2.5 C

16 W/m

0.00 mm

08:30

2.7 C

1006.3 hpa

79 %

19.3 km/h aus 117

24.1 km/h aus SE

-0.6 C

-1.9 C

-1.8 C

2.5 C

19 W/m

0.00 mm

08:35

2.7 C

1006.3 hpa

79 %

19.3 km/h aus 116

25.7 km/h aus SSE

-0.6 C

-1.9 C

-1.8 C

2.5 C

22 W/m

0.00 mm

08:40

2.7 C

1006.3 hpa

79 %

17.7 km/h aus 117

25.7 km/h aus SE

-0.6 C

-1.7 C

-1.6 C

2.5 C

26 W/m

0.00 mm

08:45

2.7 C

1006.3 hpa

79 %

17.7 km/h aus 117

24.1 km/h aus SSE

-0.6 C

-1.6 C

-1.4 C

2.6 C

30 W/m

0.00 mm

08:50

2.8 C

1006.3 hpa

79 %

17.7 km/h aus 117

24.1 km/h aus SE

-0.5 C

-1.6 C

-1.4 C

2.6 C

34 W/m

0.00 mm

08:55

2.9 C

1006.3 hpa

79 %

14.5 km/h aus 118

22.5 km/h aus SSE

-0.4 C

-0.9 C

-0.7 C

2.7 C

40 W/m

0.00 mm

09:00

2.9 C

1006.3 hpa

79 %

11.3 km/h aus 117

20.9 km/h aus SE

-0.3 C

-0.2 C

-0.1 C

2.8 C

42 W/m

0.00 mm

09:05

3.0 C

1006.3 hpa

79 %

14.5 km/h aus 117

22.5 km/h aus SE

-0.3 C

-0.8 C

-0.6 C

2.8 C

42 W/m

0.00 mm

09:10

3.1 C

1006.3 hpa

79 %

12.9 km/h aus 117

24.1 km/h aus ESE

-0.2 C

-0.4 C

-0.3 C

2.9 C

42 W/m

0.00 mm

09:15

3.2 C

1006.2 hpa

79 %

16.1 km/h aus 117

22.5 km/h aus SE

-0.1 C

-0.8 C

-0.7 C

3.0 C

43 W/m

0.00 mm

09:20

3.2 C

1006.2 hpa

79 %

14.5 km/h aus 117

24.1 km/h aus ESE

-0.1 C

-0.5 C

-0.3 C

3.1 C

48 W/m

0.00 mm

09:25

3.3 C

1006.2 hpa

78 %

11.3 km/h aus 117

20.9 km/h aus ESE

-0.1 C

0.2 C

0.4 C

3.2 C

58 W/m

0.00 mm

09:30

3.4 C

1006.4 hpa

79 %

14.5 km/h aus 117

22.5 km/h aus ESE

0.1 C

-0.2 C

-0.1 C

3.3 C

73 W/m

0.00 mm

09:35

3.5 C

1006.4 hpa

79 %

11.3 km/h aus 117

17.7 km/h aus ESE

0.2 C

0.4 C

0.6 C

3.3 C

83 W/m

0.00 mm

09:40

3.7 C

1006.4 hpa

78 %

9.7 km/h aus 117

17.7 km/h aus ESE

0.2 C

1.0 C

1.2 C

3.5 C

93 W/m

0.00 mm

09:45

3.8 C

1006.7 hpa

78 %

11.3 km/h aus 115

17.7 km/h aus ESE

0.3 C

0.8 C

0.9 C

3.6 C

107 W/m

0.00 mm

09:50

3.9 C

1006.7 hpa

78 %

11.3 km/h aus 117

17.7 km/h aus SSE

0.5 C

1.0 C

1.2 C

3.8 C

116 W/m

0.00 mm

09:55

4.1 C

1006.7 hpa

78 %

11.3 km/h aus 117

17.7 km/h aus SSE

0.6 C

1.1 C

1.3 C

3.9 C

118 W/m

0.00 mm

10:00

4.2 C

1006.8 hpa

79 %

12.9 km/h aus 117

17.7 km/h aus SE

0.9 C

1.0 C

1.2 C

4.1 C

106 W/m

0.00 mm

10:05

4.3 C

1006.8 hpa

78 %

9.7 km/h aus 117

14.5 km/h aus SE

0.8 C

1.7 C

1.9 C

4.1 C

93 W/m

0.00 mm

10:10

4.4 C

1006.8 hpa

78 %

9.7 km/h aus 117

16.1 km/h aus SSE

0.9 C

1.9 C

2.1 C

4.2 C

91 W/m

0.00 mm

10:15

4.5 C

1006.8 hpa

78 %

12.9 km/h aus 117

20.9 km/h aus ESE

1.0 C

1.3 C

1.5 C

4.3 C

103 W/m

0.00 mm

10:20

4.6 C

1006.8 hpa

79 %

11.3 km/h aus 117

19.3 km/h aus SSE

1.3 C

1.8 C

1.9 C

4.4 C

110 W/m

0.00 mm

10:25

4.7 C

1006.8 hpa

79 %

8.0 km/h aus 116

17.7 km/h aus ESE

1.4 C

2.7 C

2.8 C

4.6 C

103 W/m

0.00 mm

10:30

4.8 C

1006.9 hpa

78 %

11.3 km/h aus 117

17.7 km/h aus ESE

1.3 C

1.9 C

2.1 C

4.6 C

98 W/m

0.00 mm

10:35

4.9 C

1006.9 hpa

78 %

9.7 km/h aus 117

17.7 km/h aus ESE

1.4 C

2.4 C

2.6 C

4.7 C

104 W/m

0.00 mm

10:40

4.9 C

1006.9 hpa

78 %

8.0 km/h aus 117

16.1 km/h aus ESE

1.4 C

2.9 C

3.1 C

4.8 C

115 W/m

0.00 mm

10:45

5.1 C

1007.2 hpa

78 %

8.0 km/h aus 117

14.5 km/h aus ESE

1.5 C

3.0 C

3.2 C

4.9 C

132 W/m

0.00 mm

10:50

5.1 C

1007.2 hpa

78 %

6.4 km/h aus 117

16.1 km/h aus SE

1.6 C

3.6 C

3.7 C

4.9 C

129 W/m

0.00 mm

10:55

5.2 C

1007.2 hpa

78 %

6.4 km/h aus 117

11.3 km/h aus ESE

1.7 C

3.7 C

3.8 C

5.1 C

120 W/m

0.00 mm

11:00

5.3 C

1007.3 hpa

78 %

8.0 km/h aus 116

11.3 km/h aus ESE

1.8 C

3.3 C

3.5 C

5.2 C

133 W/m

0.00 mm

11:05

5.4 C

1007.3 hpa

78 %

4.8 km/h aus 118

9.7 km/h aus E

1.9 C

4.4 C

4.6 C

5.2 C

150 W/m

0.00 mm

11:10

5.5 C

1007.3 hpa

78 %

4.8 km/h aus 117

11.3 km/h aus E

2.0 C

4.6 C

4.7 C

5.3 C

150 W/m

0.00 mm

11:15

5.8 C

1007.1 hpa

78 %

1.6 km/h aus 117

6.4 km/h aus E

2.2 C

5.6 C

5.8 C

5.6 C

159 W/m

0.00 mm

11:20

6.2 C

1007.1 hpa

77 %

0.0 km/h aus 116

4.8 km/h aus E

2.4 C

5.9 C

6.2 C

5.9 C

190 W/m

0.00 mm

11:25

6.4 C

1007.1 hpa

77 %

1.6 km/h aus 116

4.8 km/h aus E

2.7 C

6.3 C

6.4 C

6.3 C

164 W/m

0.00 mm

11:30

6.5 C

1007.3 hpa

76 %

0.0 km/h aus 116

3.2 km/h aus E

2.6 C

6.3 C

6.5 C

6.3 C

166 W/m

0.00 mm

11:35

6.7 C

1007.3 hpa

76 %

0.0 km/h aus 117

3.2 km/h aus E

2.7 C

6.4 C

6.7 C

6.4 C

198 W/m

0.00 mm

11:40

6.8 C

1007.3 hpa

76 %

0.0 km/h aus 117

3.2 km/h aus E

2.9 C

6.6 C

6.8 C

6.6 C

195 W/m

0.00 mm

11:45

6.9 C

1007.3 hpa

76 %

0.0 km/h aus 117

3.2 km/h aus E

2.9 C

6.7 C

6.9 C

6.7 C

162 W/m

0.00 mm

11:50

6.9 C

1007.3 hpa

76 %

1.6 km/h aus 117

8.0 km/h aus E

2.9 C

6.7 C

6.9 C

6.7 C

165 W/m

0.00 mm

11:55

7.1 C

1007.3 hpa

76 %

4.8 km/h aus 117

9.7 km/h aus E

3.1 C

6.3 C

6.5 C

6.8 C

216 W/m

0.00 mm

12:00

7.2 C

1007.5 hpa

76 %

3.2 km/h aus 117

9.7 km/h aus E

3.3 C

7.0 C

7.2 C

7.0 C

213 W/m

0.00 mm

12:05

7.2 C

1007.5 hpa

76 %

3.2 km/h aus 118

9.7 km/h aus ESE

3.3 C

7.0 C

7.2 C

7.0 C

179 W/m

0.00 mm

12:10

7.2 C

1007.5 hpa

76 %

3.2 km/h aus 117

9.7 km/h aus ESE

3.3 C

7.0 C

7.2 C

7.0 C

158 W/m

0.00 mm

12:15

7.3 C

1007.4 hpa

76 %

3.2 km/h aus 117

11.3 km/h aus SE

3.3 C

7.1 C

7.3 C

7.1 C

217 W/m

0.00 mm

12:20

7.4 C

1007.4 hpa

75 %

8.0 km/h aus 115

16.1 km/h aus SSE

3.2 C

5.7 C

5.9 C

7.2 C

238 W/m

0.00 mm

12:25

7.4 C

1007.4 hpa

75 %

4.8 km/h aus 116

9.7 km/h aus SE

3.3 C

6.7 C

6.9 C

7.2 C

209 W/m

0.00 mm

12:30

7.2 C

1007.3 hpa

74 %

4.8 km/h aus 117

9.7 km/h aus ESE

2.9 C

6.4 C

6.7 C

7.0 C

197 W/m

0.00 mm

12:35

7.3 C

1007.3 hpa

75 %

8.0 km/h aus 117

11.3 km/h aus S

3.1 C

5.6 C

5.8 C

7.1 C

198 W/m

0.00 mm

12:40

7.2 C

1007.3 hpa

75 %

4.8 km/h aus 116

9.7 km/h aus S

3.1 C

6.4 C

6.7 C

7.0 C

175 W/m

0.00 mm

12:45

7.2 C

1007.2 hpa

75 %

4.8 km/h aus 116

8.0 km/h aus S

3.1 C

6.4 C

6.7 C

7.0 C

149 W/m

0.00 mm

12:50

7.2 C

1007.2 hpa

76 %

3.2 km/h aus 117

8.0 km/h aus S

3.3 C

7.0 C

7.2 C

7.0 C

145 W/m

0.00 mm

12:55

7.2 C

1007.2 hpa

76 %

3.2 km/h aus 116

11.3 km/h aus SE

3.3 C

7.0 C

7.2 C

7.0 C

138 W/m

0.00 mm

13:00

7.2 C

1007.2 hpa

76 %

4.8 km/h aus 117

9.7 km/h aus S

3.3 C

6.4 C

6.7 C

7.0 C

132 W/m

0.00 mm

13:05

7.1 C

1007.2 hpa

76 %

4.8 km/h aus 117

9.7 km/h aus S

3.2 C

6.3 C

6.6 C

6.9 C

149 W/m

0.00 mm

13:10

7.2 C

1007.2 hpa

76 %

1.6 km/h aus 118

6.4 km/h aus S

3.3 C

7.0 C

7.2 C

7.0 C

188 W/m

0.00 mm

13:15

7.4 C

1007.0 hpa

76 %

1.6 km/h aus 116

6.4 km/h aus S

3.4 C

7.2 C

7.4 C

7.2 C

199 W/m

0.00 mm

13:20

7.4 C

1007.0 hpa

75 %

1.6 km/h aus 117

4.8 km/h aus S

3.3 C

7.2 C

7.4 C

7.2 C

190 W/m

0.00 mm

13:25

7.4 C

1007.0 hpa

75 %

1.6 km/h aus 116

8.0 km/h aus SE

3.3 C

7.2 C

7.4 C

7.2 C

168 W/m

0.00 mm

13:30

7.4 C

1007.1 hpa

75 %

1.6 km/h aus 115

6.4 km/h aus SE

3.2 C

7.2 C

7.4 C

7.2 C

151 W/m

0.00 mm

13:35

7.4 C

1007.1 hpa

75 %

0.0 km/h aus 117

4.8 km/h aus SE

3.2 C

7.2 C

7.4 C

7.2 C

144 W/m

0.00 mm

13:40

7.4 C

1007.1 hpa

75 %

0.0 km/h aus 116

4.8 km/h aus SE

3.2 C

7.2 C

7.4 C

7.2 C

142 W/m

0.00 mm

13:45

7.4 C

1007.1 hpa

75 %

3.2 km/h aus 117

11.3 km/h aus SSE

3.2 C

7.2 C

7.4 C

7.2 C

140 W/m

0.00 mm

13:50

7.4 C

1007.1 hpa

76 %

6.4 km/h aus 116

11.3 km/h aus S

3.5 C

6.2 C

6.4 C

7.2 C

131 W/m

0.00 mm

13:55

7.4 C

1007.1 hpa

76 %

8.0 km/h aus 117

17.7 km/h aus SSE

3.4 C

5.7 C

5.9 C

7.2 C

117 W/m

0.00 mm

14:00

7.3 C

1007.1 hpa

76 %

8.0 km/h aus 117

14.5 km/h aus S

3.4 C

5.6 C

5.8 C

7.1 C

108 W/m

0.00 mm

14:05

7.3 C

1007.1 hpa

76 %

9.7 km/h aus 116

16.1 km/h aus SE

3.3 C

5.2 C

5.4 C

7.1 C

111 W/m

0.00 mm

14:10

7.2 C

1007.1 hpa

76 %

6.4 km/h aus 117

16.1 km/h aus SE

3.3 C

5.9 C

6.2 C

7.0 C

125 W/m

0.00 mm

14:15

7.3 C

1007.1 hpa

76 %

8.0 km/h aus 118

14.5 km/h aus SE

3.3 C

5.6 C

5.8 C

7.1 C

141 W/m

0.00 mm

14:20

7.3 C

1007.1 hpa

76 %

8.0 km/h aus 117

14.5 km/h aus SE

3.3 C

5.6 C

5.8 C

7.1 C

141 W/m

0.00 mm

14:25

7.2 C

1007.1 hpa

76 %

8.0 km/h aus 117

14.5 km/h aus SE

3.3 C

5.5 C

5.7 C

7.0 C

146 W/m

0.00 mm

14:30

7.2 C

1007.1 hpa

76 %

8.0 km/h aus 116

14.5 km/h aus SE

3.3 C

5.5 C

5.7 C

7.0 C

141 W/m

0.00 mm

14:35

7.2 C

1007.1 hpa

76 %

9.7 km/h aus 117

17.7 km/h aus ESE

3.3 C

5.2 C

5.4 C

7.0 C

140 W/m

0.00 mm

14:40

7.2 C

1007.1 hpa

76 %

6.4 km/h aus 117

16.1 km/h aus SE

3.3 C

5.9 C

6.2 C

7.0 C

138 W/m

0.00 mm

14:45

7.2 C

1006.9 hpa

76 %

8.0 km/h aus 117

16.1 km/h aus ESE

3.3 C

5.5 C

5.7 C

7.0 C

128 W/m

0.00 mm

14:50

7.1 C

1006.9 hpa

76 %

8.0 km/h aus 117

16.1 km/h aus ESE

3.1 C

5.3 C

5.6 C

6.8 C

115 W/m

0.00 mm

14:55

6.9 C

1006.9 hpa

76 %

8.0 km/h aus 117

16.1 km/h aus E

2.9 C

5.1 C

5.3 C

6.7 C

102 W/m

0.00 mm

15:00

6.8 C

1007.0 hpa

76 %

8.0 km/h aus 117

16.1 km/h aus ESE

2.9 C

5.1 C

5.3 C

6.6 C

101 W/m

0.00 mm

15:05

6.8 C

1007.0 hpa

77 %

9.7 km/h aus 116

16.1 km/h aus ESE

3.0 C

4.7 C

4.8 C

6.6 C

98 W/m

0.00 mm

15:10

6.8 C

1007.0 hpa

77 %

9.7 km/h aus 117

20.9 km/h aus ESE

3.0 C

4.7 C

4.8 C

6.6 C

88 W/m

0.00 mm

15:15

6.7 C

1007.0 hpa

77 %

9.7 km/h aus 118

17.7 km/h aus ESE

3.0 C

4.6 C

4.8 C

6.6 C

76 W/m

0.00 mm

15:20

6.7 C

1007.0 hpa

77 %

11.3 km/h aus 116

19.3 km/h aus SE

3.0 C

4.3 C

4.5 C

6.6 C

76 W/m

0.00 mm

15:25

6.7 C

1007.0 hpa

77 %

11.3 km/h aus 116

22.5 km/h aus SE

2.9 C

4.3 C

4.4 C

6.5 C

77 W/m

0.00 mm

15:30

6.6 C

1007.1 hpa

77 %

12.9 km/h aus 115

22.5 km/h aus SSE

2.8 C

3.8 C

4.0 C

6.4 C

77 W/m

0.00 mm

15:35

6.4 C

1007.1 hpa

77 %

14.5 km/h aus 117

24.1 km/h aus ESE

2.7 C

3.3 C

3.5 C

6.3 C

78 W/m

0.00 mm

15:40

6.4 C

1007.1 hpa

77 %

14.5 km/h aus 117

24.1 km/h aus SE

2.6 C

3.3 C

3.4 C

6.2 C

79 W/m

0.00 mm

15:45

6.3 C

1006.9 hpa

77 %

16.1 km/h aus 117

24.1 km/h aus SSE

2.6 C

2.9 C

3.1 C

6.2 C

85 W/m

0.00 mm

15:50

6.4 C

1006.9 hpa

77 %

14.5 km/h aus 116

20.9 km/h aus SE

2.6 C

3.3 C

3.4 C

6.2 C

90 W/m

0.00 mm

15:55

6.4 C

1006.9 hpa

77 %

14.5 km/h aus 117

24.1 km/h aus SE

2.7 C

3.3 C

3.5 C

6.3 C

90 W/m

0.00 mm

16:00

6.4 C

1006.8 hpa

77 %

17.7 km/h aus 116

24.1 km/h aus SE

2.7 C

2.8 C

3.0 C

6.3 C

86 W/m

0.00 mm

16:05

6.5 C

1006.8 hpa

77 %

14.5 km/h aus 116

25.7 km/h aus E

2.8 C

3.4 C

3.6 C

6.3 C

87 W/m

0.00 mm

16:10

6.4 C

1006.8 hpa

77 %

16.1 km/h aus 116

27.4 km/h aus SE

2.7 C

3.1 C

3.2 C

6.3 C

82 W/m

0.00 mm

16:15

6.4 C

1006.8 hpa

77 %

14.5 km/h aus 116

22.5 km/h aus SE

2.6 C

3.3 C

3.4 C

6.2 C

74 W/m

0.00 mm

16:20

6.3 C

1006.8 hpa

77 %

16.1 km/h aus 118

25.7 km/h aus SE

2.6 C

2.9 C

3.1 C

6.2 C

66 W/m

0.00 mm

16:25

6.3 C

1006.8 hpa

77 %

14.5 km/h aus 117

22.5 km/h aus SE

2.5 C

3.2 C

3.3 C

6.1 C

57 W/m

0.00 mm

16:30

6.2 C

1006.7 hpa

77 %

14.5 km/h aus 117

22.5 km/h aus SE

2.5 C

3.0 C

3.2 C

6.0 C

48 W/m

0.00 mm

16:35

6.1 C

1006.7 hpa

77 %

14.5 km/h aus 117

25.7 km/h aus SSE

2.4 C

2.9 C

3.1 C

5.9 C

38 W/m

0.00 mm

16:40

6.1 C

1006.7 hpa

77 %

14.5 km/h aus 117

22.5 km/h aus SE

2.3 C

2.8 C

3.1 C

5.8 C

29 W/m

0.00 mm

16:45

5.9 C

1006.8 hpa

77 %

14.5 km/h aus 116

22.5 km/h aus SE

2.2 C

2.7 C

2.9 C

5.7 C

21 W/m

0.00 mm

16:50

5.8 C

1006.8 hpa

77 %

14.5 km/h aus 117

22.5 km/h aus SE

2.1 C

2.6 C

2.8 C

5.6 C

14 W/m

0.00 mm

16:55

5.7 C

1006.8 hpa

77 %

12.9 km/h aus 117

22.5 km/h aus SE

1.9 C

2.7 C

2.9 C

5.4 C

12 W/m

0.00 mm

17:00

5.6 C

1006.7 hpa

77 %

14.5 km/h aus 117

19.3 km/h aus SE

1.8 C

2.3 C

2.5 C

5.3 C

11 W/m

0.00 mm

17:05

5.4 C

1006.7 hpa

78 %

14.5 km/h aus 117

20.9 km/h aus SSE

1.9 C

2.2 C

2.4 C

5.3 C

9 W/m

0.00 mm

17:10

5.3 C

1006.7 hpa

78 %

14.5 km/h aus 117

24.1 km/h aus ESE

1.8 C

2.1 C

2.2 C

5.2 C

7 W/m

0.00 mm

17:15

5.3 C

1006.7 hpa

78 %

11.3 km/h aus 116

20.9 km/h aus SE

1.8 C

2.6 C

2.7 C

5.1 C

5 W/m

0.00 mm

17:20

5.2 C

1006.7 hpa

78 %

12.9 km/h aus 117

22.5 km/h aus SE

1.6 C

2.2 C

2.3 C

5.0 C

1 W/m

0.00 mm

17:25

5.1 C

1006.7 hpa

78 %

12.9 km/h aus 118

20.9 km/h aus SE

1.5 C

2.0 C

2.2 C

4.9 C

0 W/m

0.00 mm

17:30

5.0 C

1006.7 hpa

78 %

11.3 km/h aus 116

19.3 km/h aus ESE

1.5 C

2.2 C

2.4 C

4.8 C

0 W/m

0.00 mm

17:35

4.9 C

1006.7 hpa

78 %

12.9 km/h aus 116

22.5 km/h aus SE

1.4 C

1.9 C

2.1 C

4.8 C

0 W/m

0.00 mm

17:40

4.8 C

1006.7 hpa

78 %

12.9 km/h aus 117

20.9 km/h aus SSE

1.3 C

1.7 C

1.9 C

4.6 C

0 W/m

0.00 mm

17:45

4.8 C

1006.5 hpa

78 %

14.5 km/h aus 117

27.4 km/h aus SE

1.3 C

1.4 C

1.6 C

4.6 C

0 W/m

0.00 mm

17:50

4.8 C

1006.5 hpa

78 %

16.1 km/h aus 117

22.5 km/h aus SSE

1.3 C

1.1 C

1.3 C

4.6 C

0 W/m

0.00 mm

17:55

4.7 C

1006.5 hpa

78 %

14.5 km/h aus 117

24.1 km/h aus SE

1.2 C

1.3 C

1.5 C

4.5 C

0 W/m

0.00 mm

18:00

4.7 C

1006.4 hpa

78 %

11.3 km/h aus 117

19.3 km/h aus ESE

1.2 C

1.8 C

2.0 C

4.4 C

0 W/m

0.00 mm

18:05

4.6 C

1006.4 hpa

78 %

11.3 km/h aus 117

19.3 km/h aus SE

1.1 C

1.7 C

1.9 C

4.4 C

0 W/m

0.00 mm

18:10

4.6 C

1006.4 hpa

78 %

9.7 km/h aus 116

17.7 km/h aus SE

1.0 C

2.0 C

2.2 C

4.3 C

0 W/m

0.00 mm

18:15

4.6 C

1006.3 hpa

78 %

9.7 km/h aus 117

19.3 km/h aus SE

1.0 C

2.0 C

2.2 C

4.3 C

0 W/m

0.00 mm

18:20

4.5 C

1006.3 hpa

78 %

9.7 km/h aus 117

17.7 km/h aus SSE

1.0 C

1.9 C

2.2 C

4.3 C

0 W/m

0.00 mm

18:25

4.4 C

1006.3 hpa

78 %

6.4 km/h aus 116

11.3 km/h aus SE

0.9 C

2.7 C

2.9 C

4.2 C

0 W/m

0.00 mm

18:30

4.4 C

1006.3 hpa

78 %

9.7 km/h aus 116

19.3 km/h aus ESE

0.9 C

1.8 C

2.0 C

4.2 C

0 W/m

0.00 mm

18:35

4.4 C

1006.3 hpa

78 %

6.4 km/h aus 116

14.5 km/h aus ESE

0.9 C

2.7 C

2.9 C

4.2 C

0 W/m

0.00 mm

18:40

4.3 C

1006.3 hpa

78 %

6.4 km/h aus 116

17.7 km/h aus ESE

0.8 C

2.6 C

2.8 C

4.1 C

0 W/m

0.00 mm

18:45

4.3 C

1006.3 hpa

78 %

8.0 km/h aus 117

17.7 km/h aus ESE

0.8 C

2.1 C

2.3 C

4.1 C

0 W/m

0.00 mm

18:50

4.3 C

1006.3 hpa

78 %

6.4 km/h aus 117

14.5 km/h aus E

0.8 C

2.6 C

2.8 C

4.1 C

0 W/m

0.00 mm

18:55

4.3 C

1006.3 hpa

78 %

4.8 km/h aus 117

8.0 km/h aus ESE

0.8 C

3.1 C

3.3 C

4.1 C

0 W/m

0.00 mm

19:00

4.3 C

1006.2 hpa

78 %

3.2 km/h aus 117

6.4 km/h aus ESE

0.8 C

3.9 C

4.1 C

4.1 C

0 W/m

0.00 mm

19:05

4.3 C

1006.2 hpa

78 %

4.8 km/h aus 117

8.0 km/h aus E

0.8 C

3.1 C

3.3 C

4.1 C

0 W/m

0.00 mm

19:10

4.3 C

1006.2 hpa

78 %

3.2 km/h aus 117

6.4 km/h aus ENE

0.8 C

3.9 C

4.1 C

4.1 C

0 W/m

0.00 mm

19:15

4.2 C

1006.2 hpa

78 %

1.6 km/h aus 115

8.0 km/h aus ENE

0.7 C

4.0 C

4.2 C

4.0 C

0 W/m

0.00 mm

19:20

4.2 C

1006.2 hpa

78 %

1.6 km/h aus 117

4.8 km/h aus ENE

0.7 C

3.9 C

4.2 C

3.9 C

0 W/m

0.00 mm

19:25

4.1 C

1006.2 hpa

78 %

1.6 km/h aus 117

4.8 km/h aus ENE

0.6 C

3.9 C

4.1 C

3.9 C

0 W/m

0.00 mm

19:30

4.1 C

1006.2 hpa

78 %

0.0 km/h aus 118

4.8 km/h aus ENE

0.6 C

3.8 C

4.1 C

3.8 C

0 W/m

0.00 mm

19:35

4.0 C

1006.2 hpa

78 %

0.0 km/h aus 117

1.6 km/h aus ENE

0.5 C

3.8 C

4.0 C

3.8 C

0 W/m

0.00 mm

19:40

3.9 C

1006.2 hpa

78 %

0.0 km/h aus 116

3.2 km/h aus ENE

0.5 C

3.8 C

3.9 C

3.8 C

0 W/m

0.00 mm

19:45

3.9 C

1006.3 hpa

78 %

1.6 km/h aus 117

4.8 km/h aus ENE

0.4 C

3.7 C

3.9 C

3.7 C

0 W/m

0.00 mm

19:50

3.8 C

1006.3 hpa

79 %

0.0 km/h aus 117

3.2 km/h aus ENE

0.5 C

3.7 C

3.8 C

3.7 C

0 W/m

0.00 mm

19:55

3.8 C

1006.3 hpa

79 %

0.0 km/h aus 116

1.6 km/h aus ENE

0.5 C

3.6 C

3.8 C

3.6 C

0 W/m

0.00 mm

20:00

3.7 C

1006.2 hpa

78 %

1.6 km/h aus 116

4.8 km/h aus ENE

0.2 C

3.6 C

3.7 C

3.6 C

0 W/m

0.00 mm

20:05

3.6 C

1006.2 hpa

78 %

6.4 km/h aus 117

16.1 km/h aus SSE

0.1 C

1.8 C

2.0 C

3.4 C

0 W/m

0.00 mm

20:10

3.6 C

1006.2 hpa

79 %

3.2 km/h aus 116

8.0 km/h aus SE

0.3 C

3.2 C

3.3 C

3.4 C

0 W/m

0.00 mm

20:15

3.5 C

1006.2 hpa

79 %

3.2 km/h aus 116

9.7 km/h aus SE

0.2 C

3.1 C

3.3 C

3.3 C

0 W/m

0.00 mm

20:20

3.4 C

1006.2 hpa

79 %

3.2 km/h aus 117

8.0 km/h aus SE

0.1 C

3.1 C

3.2 C

3.3 C

0 W/m

0.00 mm

20:25

3.3 C

1006.2 hpa

79 %

3.2 km/h aus 117

8.0 km/h aus SE

0.0 C

2.9 C

3.1 C

3.2 C

0 W/m

0.00 mm

20:30

3.3 C

1006.1 hpa

79 %

1.6 km/h aus 116

6.4 km/h aus SE

0.0 C

3.1 C

3.3 C

3.1 C

0 W/m

0.00 mm

20:35

3.2 C

1006.1 hpa

79 %

3.2 km/h aus 118

8.0 km/h aus SE

-0.1 C

2.8 C

2.9 C

3.1 C

0 W/m

0.00 mm

20:40

3.2 C

1006.1 hpa

79 %

3.2 km/h aus 117

8.0 km/h aus SE

-0.1 C

2.7 C

2.9 C

3.0 C

0 W/m

0.00 mm

20:45

3.1 C

1005.9 hpa

79 %

1.6 km/h aus 117

8.0 km/h aus SE

-0.2 C

2.9 C

3.1 C

2.9 C

0 W/m

0.00 mm

20:50

3.1 C

1005.9 hpa

79 %

3.2 km/h aus 116

8.0 km/h aus SE

-0.2 C

2.6 C

2.8 C

2.9 C

0 W/m

0.00 mm

20:55

3.0 C

1005.9 hpa

79 %

3.2 km/h aus 117

9.7 km/h aus SE

-0.3 C

2.6 C

2.7 C

2.8 C

0 W/m

0.00 mm

21:00

2.9 C

1005.8 hpa

79 %

1.6 km/h aus 117

11.3 km/h aus SE

-0.3 C

2.8 C

2.9 C

2.8 C

0 W/m

0.00 mm

21:05

2.9 C

1005.8 hpa

79 %

4.8 km/h aus 117

12.9 km/h aus SE

-0.4 C

1.6 C

1.8 C

2.7 C

0 W/m

0.00 mm

21:10

2.9 C

1005.8 hpa

79 %

6.4 km/h aus 116

16.1 km/h aus SSE

-0.4 C

1.0 C

1.2 C

2.7 C

0 W/m

0.00 mm

21:15

2.9 C

1005.7 hpa

79 %

8.0 km/h aus 117

17.7 km/h aus ESE

-0.4 C

0.5 C

0.7 C

2.7 C

0 W/m

0.00 mm

21:20

2.9 C

1005.7 hpa

79 %

8.0 km/h aus 117

16.1 km/h aus ESE

-0.3 C

0.6 C

0.7 C

2.8 C

0 W/m

0.00 mm

21:25

3.0 C

1005.7 hpa

79 %

8.0 km/h aus 117

14.5 km/h aus SE

-0.3 C

0.6 C

0.8 C

2.8 C

0 W/m

0.00 mm

21:30

3.1 C

1005.7 hpa

78 %

4.8 km/h aus 117

9.7 km/h aus ESE

-0.4 C

1.8 C

1.9 C

2.9 C

0 W/m

0.00 mm

21:35

3.1 C

1005.7 hpa

79 %

8.0 km/h aus 117

16.1 km/h aus ESE

-0.2 C

0.7 C

0.8 C

2.9 C

0 W/m

0.00 mm

21:40

3.1 C

1005.7 hpa

78 %

9.7 km/h aus 118

17.7 km/h aus ESE

-0.4 C

0.3 C

0.5 C

2.9 C

0 W/m

0.00 mm

21:45

3.2 C

1005.2 hpa

78 %

6.4 km/h aus 117

12.9 km/h aus E

-0.3 C

1.3 C

1.5 C

3.0 C

0 W/m

0.00 mm

21:50

3.2 C

1005.2 hpa

78 %

8.0 km/h aus 116

16.1 km/h aus E

-0.3 C

0.8 C

1.0 C

3.0 C

0 W/m

0.00 mm

21:55

3.2 C

1005.2 hpa

78 %

8.0 km/h aus 117

14.5 km/h aus ESE

-0.3 C

0.8 C

1.0 C

3.0 C

0 W/m

0.00 mm

22:00

3.2 C

1004.9 hpa

78 %

6.4 km/h aus 117

11.3 km/h aus E

-0.3 C

1.3 C

1.5 C

3.0 C

0 W/m

0.00 mm

22:05

3.2 C

1004.9 hpa

78 %

9.7 km/h aus 116

17.7 km/h aus E

-0.3 C

0.4 C

0.6 C

3.0 C

0 W/m

0.00 mm

22:10

3.2 C

1004.9 hpa

78 %

11.3 km/h aus 117

17.7 km/h aus ESE

-0.3 C

0.1 C

0.2 C

3.0 C

0 W/m

0.00 mm

22:15

3.1 C

1005.0 hpa

78 %

8.0 km/h aus 116

16.1 km/h aus ESE

-0.4 C

0.8 C

0.9 C

2.9 C

0 W/m

0.00 mm

22:20

3.1 C

1005.0 hpa

78 %

4.8 km/h aus 117

14.5 km/h aus ESE

-0.4 C

1.9 C

2.1 C

2.9 C

0 W/m

0.00 mm

22:25

3.1 C

1005.0 hpa

78 %

4.8 km/h aus 117

9.7 km/h aus ESE

-0.4 C

1.8 C

1.9 C

2.9 C

0 W/m

0.00 mm

22:30

3.1 C

1004.8 hpa

78 %

4.8 km/h aus 117

9.7 km/h aus ESE

-0.4 C

1.8 C

1.9 C

2.9 C

0 W/m

0.00 mm

22:35

3.0 C

1004.8 hpa

78 %

6.4 km/h aus 116

9.7 km/h aus ESE

-0.5 C

1.1 C

1.3 C

2.8 C

0 W/m

0.00 mm

22:40

2.9 C

1004.8 hpa

78 %

6.4 km/h aus 116

9.7 km/h aus ESE

-0.5 C

1.1 C

1.2 C

2.8 C

0 W/m

0.00 mm

22:45

3.0 C

1004.6 hpa

78 %

9.7 km/h aus 117

17.7 km/h aus ESE

-0.5 C

0.2 C

0.4 C

2.8 C

0 W/m

0.00 mm

22:50

3.1 C

1004.6 hpa

78 %

6.4 km/h aus 117

11.3 km/h aus ESE

-0.4 C

1.2 C

1.3 C

2.9 C

0 W/m

0.00 mm

22:55

3.0 C

1004.6 hpa

78 %

4.8 km/h aus 116

8.0 km/h aus ESE

-0.5 C

1.7 C

1.9 C

2.8 C

0 W/m

0.00 mm

23:00

3.0 C

1004.3 hpa

78 %

4.8 km/h aus 117

9.7 km/h aus ESE

-0.5 C

1.7 C

1.9 C

2.8 C

0 W/m

0.00 mm

23:05

3.0 C

1004.3 hpa

78 %

4.8 km/h aus 117

9.7 km/h aus ESE

-0.5 C

1.7 C

1.9 C

2.8 C

0 W/m

0.00 mm

23:10

3.1 C

1004.3 hpa

78 %

6.4 km/h aus 117

14.5 km/h aus ENE

-0.4 C

1.2 C

1.3 C

2.9 C

0 W/m

0.00 mm

23:15

3.2 C

1004.1 hpa

78 %

6.4 km/h aus 116

16.1 km/h aus E

-0.3 C

1.3 C

1.5 C

3.0 C

0 W/m

0.00 mm

23:20

3.2 C

1004.1 hpa

78 %

6.4 km/h aus 117

14.5 km/h aus ENE

-0.3 C

1.3 C

1.5 C

3.0 C

0 W/m

0.00 mm

23:25

3.2 C

1004.1 hpa

78 %

6.4 km/h aus 117

9.7 km/h aus ENE

-0.2 C

1.4 C

1.6 C

3.1 C

0 W/m

0.00 mm

23:30

3.2 C

1004.1 hpa

78 %

6.4 km/h aus 116

11.3 km/h aus E

-0.2 C

1.4 C

1.6 C

3.1 C

0 W/m

0.00 mm

23:35

3.2 C

1004.1 hpa

78 %

6.4 km/h aus 117

12.9 km/h aus E

-0.2 C

1.4 C

1.6 C

3.1 C

0 W/m

0.00 mm

23:40

3.2 C

1004.1 hpa

78 %

8.0 km/h aus 117

17.7 km/h aus ENE

-0.2 C

0.9 C

1.1 C

3.1 C

0 W/m

0.00 mm

23:45

3.2 C

1004.0 hpa

78 %

8.0 km/h aus 117

19.3 km/h aus ESE

-0.2 C

0.9 C

1.1 C

3.1 C

0 W/m

0.00 mm

23:50

3.2 C

1004.0 hpa

78 %

8.0 km/h aus 118

16.1 km/h aus E

-0.2 C

0.9 C

1.1 C

3.1 C

0 W/m

0.00 mm

23:55

3.2 C

1004.0 hpa

78 %

8.0 km/h aus 117

17.7 km/h aus E

-0.3 C

0.8 C

1.0 C

3.0 C

0 W/m

0.00 mm